Temp_Advection
nan nan nan nan nan nan nan nan nan nan nan nan nan nan nan nan nan nan nan nan nan nan nan nan nan nan nan nan nan nan nan nan nan nan nan nan nan nan nan nan nan nan nan nan nan
nan -0 -0 -0 -0 -1 -1 -1 -0 -0 -0 -1 -0 -0 -0 -0 -0 -0 -0 0 0 -0 0 -0 -0 -0 0 0 0 0 -0 -0 -0 -0 0 0 -0 -0 -0 -0 -0 -0 0 0 nan
nan -0 -0 -0 -0 -0 -1 -1 -1 -0 -0 -1 -0 -0 -0 -0 -0 0 0 0 -0 -0 -0 0 -0 -0 -0 -0 0 -0 -0 0 -0 0 0 -0 -0 -0 0 -0 -0 -0 -0 0 nan
nan 0 -0 -0 -0 -0 -1 -1 -1 -1 -0 -0 -1 -1 -0 -0 -0 -0 0 0 -0 -0 -0 -0 -0 -0 -0 -0 -0 -0 -0 -0 -0 0 0 -0 -0 -0 -0 -0 -0 -0 -0 -0 nan
nan -0 -0 -0 -0 -0 -0 -1 -1 -1 -1 -0 -0 -1 -1 -0 -0 0 -0 -0 -0 -0 -0 -0 -0 -0 -0 0 0 -0 -0 0 0 0 -0 -0 -0 -0 -0 0 1 0 0 -0 nan
nan 0 0 -0 -0 -0 -0 -0 -1 -1 -1 -1 -0 -0 -0 -0 -0 0 0 -0 -0 -0 -0 -0 -0 0 0 -0 -0 -0 0 0 0 0 -0 -0 -0 -0 -0 0 0 0 0 0 nan
nan 1 1 0 -0 -0 -0 -0 -1 -1 -1 -1 -0 -0 -1 -1 -0 0 0 0 -0 -0 -0 0 0 -0 0 -0 -0 -0 0 0 -0 -0 -0 -0 -0 -0 -0 0 0 0 -0 0 nan
nan 1 1 0 0 -0 -0 -0 -1 -1 -0 -0 -0 -0 -1 -1 0 -0 0 0 -0 0 0 0 0 0 -0 -0 0 -0 0 -0 0 -0 0 0 -0 -0 -0 -0 -0 -0 -1 -0 nan
nan 0 1 1 1 -0 -1 -1 -1 -1 -1 -0 0 -0 -1 -0 -0 -0 -0 -0 0 0 0 0 0 0 -0 -0 0 0 -0 -0 -0 -0 -0 0 -0 -0 -0 -0 -0 -0 -0 -1 nan
nan 0 1 1 0 -0 -1 -1 -1 -1 -0 0 0 -1 -1 -0 0 0 -0 0 0 -0 0 0 0 0 0 0 -0 0 -0 -0 -0 -0 -0 0 -0 -0 -0 -0 -0 -0 0 -0 nan
nan 0 0 1 0 0 -0 -1 -0 -0 -0 -1 -0 -0 -0 0 0 0 0 0 0 0 0 0 0 -0 0 0 0 0 0 -0 -0 0 -0 0 0 -0 -0 -0 -0 -0 -0 -1 nan
nan 0 1 0 0 0 -0 -0 -0 -0 -1 -2 -0 -0 -1 0 -0 -0 0 -0 0 0 0 0 -0 0 0 -0 -0 0 0 -0 0 -0 0 0 0 -0 -0 -0 -0 -0 -0 -1 nan
nan -0 1 1 0 -0 -0 -0 0 0 -0 -1 -0 -0 -1 -0 -0 -1 -0 -0 -0 -0 0 -0 0 -0 -0 -0 -0 -0 -0 0 0 -0 0 0 -0 -0 -0 0 -0 -0 -0 -0 nan
nan -0 -0 1 -0 -1 -0 0 0 -0 -0 -0 -0 -0 0 -0 -0 -1 -1 -0 -0 -0 -0 -0 0 -0 -0 -0 -0 -0 0 0 0 0 -0 -0 0 0 0 -0 -0 -0 -0 -1 nan
nan -0 0 0 0 -0 0 0 0 0 -0 -0 -0 0 0 0 -0 0 -0 0 -0 0 0 -0 -0 -0 -0 -0 -0 0 -0 0 -0 0 0 0 -0 0 -0 -1 -1 -0 -0 -1 nan
nan -0 0 -0 0 0 0 0 0 0 -1 -0 -0 0 0 -0 0 0 0 0 -0 -0 0 0 -0 -0 -0 0 -0 0 -0 -0 -0 0 0 0 0 -0 -0 -0 -0 1 -0 -2 nan
nan -0 -0 -0 -1 0 0 -0 -0 -0 -0 -0 -0 -0 0 0 0 0 0 0 0 -0 0 -0 -0 0 0 -0 -0 0 -0 0 0 -0 0 -0 0 -0 0 0 0 0 0 -1 nan
nan -0 -0 0 0 1 0 -0 -0 -0 -1 -0 0 -0 0 0 -0 -0 0 0 0 -0 0 0 -0 0 0 0 -0 0 0 0 0 0 0 -0 -0 -0 0 0 0 -0 -0 -0 nan
nan 0 0 -0 -0 1 -0 -1 -0 -0 -0 -0 -0 -0 -0 0 0 -0 0 0 -0 0 -0 -0 -0 -0 0 0 0 -0 0 -0 -1 0 -0 -0 -0 -0 -0 0 0 0 -0 0 nan
nan 0 -0 -0 -0 -0 -0 -1 -0 -0 0 -0 0 0 0 0 0 0 -0 0 0 0 0 -0 -0 0 0 -0 -0 0 -0 0 0 -0 -0 -0 -0 -0 -0 0 0 0 -0 -0 nan
nan -0 -0 -1 -1 -1 -0 -0 -0 -0 0 0 0 -0 -0 -0 0 0 -0 -0 -0 0 0 0 0 0 -0 0 -0 -0 -0 -0 0 0 0 0 -0 0 -0 0 0 0 -0 -0 nan
nan -0 -0 -1 -1 -1 -1 -0 -0 0 0 0 0 0 -0 -0 0 -0 0 -0 0 -0 0 0 0 0 -0 -0 0 -0 0 -0 0 0 0 -0 -0 -0 0 0 0 -0 -0 -0 nan
nan -0 0 0 -1 -1 -0 -0 0 0 0 0 0 -0 0 -0 -0 -0 0 0 0 0 -0 -0 0 -0 -0 -0 -0 0 0 -0 -0 0 -0 -0 -0 0 0 -0 -0 -0 -0 -0 nan
nan 0 -0 0 -2 -0 -0 -0 0 -0 -0 -0 0 -0 0 -0 0 -0 0 0 0 0 0 -1 -0 0 0 0 0 0 0 0 -0 -0 -0 -0 -0 -0 0 0 0 0 -0 -0 nan
nan -0 -1 -1 -1 -1 -0 -0 0 0 -0 0 0 -0 0 0 -0 0 0 -0 0 0 0 0 -0 0 -0 0 0 -0 -0 -0 -0 -0 -0 0 0 -0 0 0 0 -0 -0 0 nan
nan -0 -0 -1 -1 -0 -0 -0 -0 -1 0 -0 -0 0 0 -0 -0 0 0 -0 0 0 0 0 0 0 0 0 0 0 0 -0 0 0 -0 0 -0 0 0 0 -0 0 0 0 nan
nan nan nan nan nan nan nan nan nan nan nan nan nan nan nan nan nan nan nan nan nan nan nan nan nan nan nan nan nan nan nan nan nan nan nan nan nan nan nan nan nan nan nan nan nan
Wind_Speed
17 17 17 17 18 19 18 18 17 17 18 19 19 21 22 19 12 5 5 6 3 1 6 9 11 10 7 4 2 1 1 3 2 2 4 1 2 2 4 6 2 2 6 16 19
19 18 18 18 19 20 19 19 19 19 19 19 19 21 19 17 8 1 5 7 2 3 6 8 11 11 5 4 3 2 1 4 4 3 2 2 3 5 3 4 4 10 14 22 19
22 20 19 19 19 20 20 20 19 20 20 20 20 20 18 14 2 0 6 5 2 6 7 9 13 7 3 4 4 4 4 4 5 12 4 3 3 4 8 2 7 18 25 22 19
22 21 22 22 20 19 20 20 20 20 21 20 20 19 17 9 2 1 5 1 7 9 11 11 9 2 2 2 4 3 10 9 4 2 3 4 7 5 2 2 4 17 20 23 22
24 23 22 20 21 20 19 19 20 19 21 20 20 19 15 7 5 3 1 4 9 12 10 6 6 2 1 3 2 5 6 4 7 2 5 6 5 5 5 9 15 17 19 18 22
27 25 23 21 21 19 18 18 20 20 20 20 20 19 13 6 6 5 3 6 9 13 10 5 2 2 2 4 4 2 6 10 2 7 7 8 3 3 2 11 14 13 14 12 16
23 25 24 21 21 19 18 17 19 20 21 19 19 19 16 16 8 9 7 8 9 10 7 2 2 2 6 3 5 6 3 2 2 5 4 12 5 4 9 12 11 11 13 15 17
21 22 24 21 20 21 17 16 18 21 21 21 19 18 10 9 14 14 11 9 8 9 6 3 2 6 3 7 4 2 2 1 0 2 1 3 2 4 11 15 13 13 17 16 15
20 20 21 18 18 18 19 16 18 21 23 20 16 9 9 7 14 16 15 7 6 7 6 5 4 2 1 3 3 4 0 2 2 7 4 1 3 10 15 12 15 14 18 18 18
21 18 19 17 16 15 16 14 18 20 19 14 14 6 13 5 8 12 17 14 6 7 5 5 2 0 1 1 1 1 1 1 3 4 3 3 1 13 18 16 13 14 16 20 20
23 20 18 16 15 13 13 11 11 6 6 9 4 6 3 4 8 12 15 16 11 6 4 2 2 6 9 6 3 2 1 1 1 1 3 7 5 14 19 16 14 15 17 21 26
25 24 19 15 14 10 11 8 8 8 11 18 20 28 28 15 5 11 16 12 9 4 5 2 5 5 2 2 5 3 1 0 2 4 4 2 4 5 15 19 20 18 18 23 26
23 25 22 16 13 12 10 10 11 9 6 12 18 18 25 19 12 14 21 12 6 6 8 4 4 5 5 2 5 4 3 3 2 2 3 3 2 5 8 14 13 19 20 22 25
23 19 20 14 12 11 10 6 9 10 3 6 6 7 14 12 6 18 25 13 3 10 9 5 1 4 4 4 4 3 8 2 4 2 2 1 3 4 7 10 13 20 23 28 29
24 21 18 18 9 6 5 2 4 4 4 3 4 4 11 16 11 18 24 9 8 7 6 5 6 4 3 6 7 5 4 2 3 3 1 1 1 3 1 10 17 25 26 29 31
29 25 21 23 23 14 12 5 4 1 7 2 7 6 7 6 4 10 11 8 6 4 1 4 2 5 5 2 5 6 2 6 3 2 1 2 3 3 4 10 10 21 25 34 35
31 25 24 26 23 22 12 2 3 6 3 2 3 4 6 5 3 5 9 6 6 5 4 1 3 1 3 2 1 3 3 2 1 1 3 2 2 7 7 6 9 13 21 33 40
29 25 26 30 17 22 16 3 9 6 10 1 2 3 7 6 5 3 8 11 3 4 3 6 3 6 4 5 6 3 5 4 3 3 2 1 4 4 4 7 13 14 16 18 28
27 29 30 30 28 21 18 11 8 9 5 2 2 1 4 4 6 4 6 12 10 7 5 5 4 2 2 2 2 4 3 1 6 2 1 2 4 9 2 3 5 6 5 7 14
34 31 36 30 30 29 9 18 8 6 5 4 6 4 8 7 7 12 7 5 6 9 5 7 2 1 0 3 5 2 7 3 1 4 3 2 3 3 5 5 3 6 8 6 5
35 19 17 29 33 21 14 13 8 11 5 4 3 3 4 5 7 5 10 3 8 7 4 4 3 1 2 4 8 3 2 3 4 2 3 3 4 6 6 4 5 7 7 6 4
28 7 17 25 20 14 19 11 7 11 5 2 3 4 3 3 6 7 11 9 18 16 9 6 5 4 6 1 1 3 4 4 3 4 1 1 5 3 9 6 8 10 5 2 2
18 14 20 36 14 16 14 15 9 8 10 7 5 5 1 1 3 6 6 6 17 9 10 7 1 2 2 1 2 3 4 4 4 3 6 4 5 1 5 7 8 13 8 7 5
15 8 17 35 43 22 18 20 19 19 11 7 4 3 2 3 3 2 5 3 15 7 13 15 4 6 10 6 5 4 6 6 5 3 4 6 6 8 8 7 12 10 10 8 6
16 7 16 14 23 22 20 14 26 12 11 19 6 12 2 5 3 4 2 1 3 6 6 5 7 6 5 5 6 6 5 10 10 7 7 8 9 9 7 6 6 8 4 2 5
11 8 13 18 36 25 14 21 26 24 16 13 9 14 14 7 7 5 4 2 3 1 6 1 5 5 3 3 6 5 7 10 10 2 8 7 8 10 5 4 1 2 9 16 18
28 25 18 17 21 18 24 19 18 20 15 15 15 3 7 17 17 14 16 10 6 3 2 4 7 4 4 2 3 5 7 10 5 5 5 8 11 5 5 5 8 12 15 19 20
Wind_Direction
298 305 312 318 323 328 328 326 322 323 325 328 331 331 332 333 332 334 5 339 338 177 156 150 151 153 133 135 179 164 354 306 268 259 317 345 107 78 106 111 51 31 128 154 162
288 295 302 309 316 322 327 326 322 321 323 325 330 331 333 333 329 353 355 338 344 161 159 170 156 148 124 161 217 142 214 242 222 229 251 351 153 151 131 140 83 108 132 152 149
279 283 291 298 307 314 321 323 321 319 320 325 327 331 333 333 322 284 342 342 139 148 131 135 132 150 130 180 211 185 222 209 251 252 232 151 169 144 142 194 194 157 147 152 144
275 280 282 286 293 304 313 320 320 317 316 323 325 330 330 325 186 223 344 6 145 144 140 134 137 143 131 227 218 247 249 250 308 321 142 174 135 98 37 327 170 156 148 149 139
269 272 275 284 287 294 305 313 316 314 313 317 323 328 331 306 240 217 353 119 153 154 155 143 128 156 153 242 248 226 272 291 289 232 99 128 73 107 40 110 141 149 150 149 157
265 266 272 279 283 290 299 306 312 312 310 313 317 321 319 274 218 190 153 132 163 165 172 149 97 317 260 242 221 264 278 303 219 145 133 116 138 60 116 128 141 143 146 156 157
274 264 264 269 277 284 292 301 306 308 306 306 310 312 298 271 226 194 168 153 164 168 196 186 310 319 320 269 277 282 299 2 111 171 164 141 61 38 149 149 156 154 158 162 170
275 279 265 264 274 282 289 296 304 304 301 299 301 301 266 256 213 199 187 166 166 184 196 221 278 299 239 296 322 343 104 255 346 192 85 287 115 176 175 166 174 174 169 172 170
268 276 278 265 272 280 288 294 302 300 295 292 291 281 262 232 224 211 204 189 194 191 187 215 302 260 277 354 329 22 314 80 187 190 149 223 141 190 193 186 180 188 185 184 188
258 264 275 266 267 272 287 298 302 293 288 281 259 274 242 195 186 200 206 210 191 151 173 198 181 234 92 117 248 340 359 309 235 171 148 183 165 173 192 197 196 197 202 203 203
250 255 260 262 261 272 298 319 306 286 266 235 236 250 215 198 213 209 196 190 183 188 161 138 171 222 238 194 216 145 184 233 261 217 152 207 193 194 192 205 209 207 207 212 216
245 247 251 252 255 263 288 288 300 301 302 278 260 255 251 252 303 216 193 159 167 166 125 110 231 216 201 185 229 163 177 282 301 340 193 166 227 194 200 217 211 209 211 215 220
247 241 246 241 242 254 269 283 287 293 274 280 245 243 241 231 220 231 191 180 146 151 177 180 204 112 147 199 219 172 174 204 240 97 64 137 231 190 211 229 225 227 223 226 225
243 241 236 228 240 257 263 271 280 274 289 262 221 237 193 178 225 217 199 172 161 180 160 229 204 164 185 212 198 206 177 193 96 182 183 304 264 251 201 216 233 235 226 227 226
238 226 225 202 187 186 154 157 101 134 294 213 168 157 175 172 151 196 194 188 163 166 144 226 165 172 170 213 162 250 128 164 114 128 138 163 227 287 78 229 232 231 232 234 232
236 237 210 204 200 174 169 99 167 153 245 301 145 164 141 219 169 152 169 198 166 127 123 225 167 170 196 231 173 147 148 57 61 113 190 149 193 274 199 224 243 235 231 236 236
235 233 219 201 216 194 187 300 169 213 322 238 200 171 150 170 201 152 171 173 164 149 181 342 219 207 150 126 83 105 71 315 217 110 204 83 155 244 248 244 248 252 232 239 239
234 223 219 211 191 198 204 179 216 194 231 236 37 121 178 147 225 146 143 186 242 120 134 175 249 179 180 208 168 168 160 177 216 187 168 145 220 230 225 257 269 269 267 256 248
217 225 224 216 195 176 181 208 212 180 190 280 81 134 223 197 194 151 169 199 188 181 157 146 251 277 163 146 137 144 186 131 105 23 241 231 265 273 202 322 344 317 284 275 248
203 216 231 217 195 194 203 222 214 193 153 116 189 204 213 184 175 191 172 189 190 195 160 194 156 307 163 134 46 154 135 146 44 170 234 266 289 247 294 308 342 318 311 311 304
196 187 229 216 201 200 206 215 209 210 111 159 154 267 240 186 186 185 190 231 193 166 145 136 144 241 192 198 171 143 174 60 116 138 196 236 247 219 239 247 275 293 291 267 265
184 184 194 192 203 204 214 188 201 208 171 142 129 226 224 240 181 185 196 212 181 148 158 187 147 174 200 81 121 153 174 161 138 196 162 239 256 228 244 271 252 274 312 300 245
189 183 167 184 204 207 210 207 207 189 207 158 190 218 111 305 222 190 193 224 169 150 155 176 182 157 314 101 38 197 183 147 109 99 192 199 253 223 266 273 261 270 281 308 312
176 173 163 186 211 220 196 204 198 205 229 192 151 219 178 292 207 251 205 229 187 205 201 148 144 171 224 222 166 193 192 184 153 161 185 222 251 271 280 277 292 295 283 290 305
188 197 202 173 207 221 208 197 195 185 205 198 185 230 169 205 283 231 135 92 120 169 151 149 187 181 224 209 183 199 181 177 199 202 197 239 213 251 255 267 283 300 322 107 101
173 175 199 172 199 214 230 205 196 194 173 209 186 199 207 227 215 176 90 109 225 233 161 194 188 152 188 146 205 232 207 196 217 224 245 238 242 237 249 259 301 124 125 108 101
202 198 192 199 175 199 213 211 200 187 215 201 198 207 187 224 247 290 284 242 190 148 211 170 140 138 220 91 148 284 210 192 193 204 191 213 231 169 200 181 150 132 125 116 111
Height
1545 1544 1543 1542 1540 1538 1537 1536 1533 1531 1529 1526 1524 1520 1517 1514 1512 1511 1511 1512 1510 1509 1510 1510 1511 1513 1515 1517 1518 1518 1519 1517 1515 1513 1508 1508 1508 1509 1510 1511 1510 1510 1511 1512 1514
1542 1542 1541 1540 1539 1538 1536 1534 1532 1530 1527 1524 1522 1519 1515 1513 1510 1510 1510 1510 1509 1509 1509 1510 1511 1513 1515 1516 1518 1517 1520 1514 1510 1508 1506 1508 1508 1510 1511 1511 1511 1510 1512 1514 1516
1539 1539 1538 1537 1536 1536 1534 1532 1530 1528 1526 1523 1521 1517 1514 1512 1510 1510 1508 1508 1508 1510 1510 1511 1512 1514 1513 1515 1516 1515 1512 1508 1506 1505 1507 1506 1508 1508 1511 1511 1510 1509 1512 1514 1516
1535 1535 1535 1534 1533 1533 1532 1530 1528 1525 1524 1522 1520 1516 1513 1512 1512 1508 1508 1507 1508 1510 1512 1512 1513 1515 1514 1514 1513 1514 1507 1505 1505 1504 1505 1505 1505 1509 1512 1510 1509 1513 1515 1516 1520
1530 1531 1530 1530 1530 1529 1529 1528 1526 1523 1522 1520 1518 1515 1513 1511 1507 1507 1507 1507 1508 1510 1512 1513 1512 1514 1513 1513 1513 1511 1505 1503 1504 1504 1504 1506 1507 1509 1512 1512 1511 1516 1517 1519 1522
1525 1526 1527 1527 1526 1526 1526 1525 1523 1521 1519 1518 1516 1514 1512 1511 1504 1504 1506 1507 1508 1510 1512 1512 1512 1513 1513 1512 1511 1507 1505 1504 1503 1504 1504 1506 1510 1509 1515 1516 1516 1517 1519 1522 1524
1521 1521 1522 1522 1523 1522 1522 1522 1520 1518 1516 1515 1513 1511 1509 1504 1503 1503 1504 1505 1507 1509 1512 1512 1512 1513 1512 1509 1508 1506 1505 1505 1505 1506 1505 1506 1509 1514 1516 1517 1517 1517 1520 1523 1525
1516 1518 1517 1518 1519 1519 1518 1518 1517 1515 1512 1511 1510 1509 1502 1500 1499 1501 1502 1504 1506 1508 1511 1511 1511 1511 1510 1508 1506 1505 1505 1506 1505 1505 1505 1506 1515 1518 1518 1518 1518 1518 1520 1523 1526
1512 1513 1514 1513 1515 1515 1514 1514 1512 1510 1508 1507 1508 1507 1498 1495 1497 1500 1501 1502 1503 1506 1509 1510 1510 1510 1510 1509 1508 1508 1506 1506 1507 1503 1505 1506 1513 1515 1518 1519 1519 1519 1521 1524 1526
1507 1509 1510 1510 1510 1511 1511 1510 1508 1505 1504 1503 1503 1508 1495 1492 1493 1497 1497 1499 1502 1504 1507 1508 1509 1509 1510 1510 1514 1512 1509 1507 1504 1502 1504 1506 1510 1514 1516 1517 1518 1521 1522 1524 1525
1501 1504 1505 1508 1508 1508 1509 1507 1508 1504 1501 1496 1495 1493 1492 1491 1494 1494 1495 1495 1500 1502 1504 1506 1508 1509 1504 1507 1505 1506 1509 1508 1503 1501 1504 1505 1507 1511 1513 1517 1518 1519 1521 1522 1523
1495 1499 1501 1504 1505 1506 1507 1505 1506 1507 1497 1491 1488 1487 1488 1489 1492 1492 1494 1492 1496 1499 1503 1507 1507 1501 1504 1505 1506 1505 1508 1507 1504 1504 1502 1506 1508 1510 1513 1510 1513 1515 1518 1519 1520
1491 1492 1498 1500 1502 1503 1503 1505 1503 1504 1501 1482 1478 1476 1479 1485 1486 1487 1492 1488 1490 1497 1500 1503 1498 1497 1501 1504 1505 1503 1507 1507 1505 1505 1506 1506 1507 1508 1510 1512 1512 1512 1515 1517 1518
1485 1488 1492 1497 1502 1499 1499 1501 1502 1504 1502 1479 1472 1469 1472 1477 1479 1483 1486 1487 1488 1491 1497 1498 1495 1496 1500 1501 1504 1504 1496 1502 1503 1506 1508 1507 1511 1506 1506 1507 1507 1506 1509 1509 1512
1480 1483 1487 1492 1494 1496 1498 1499 1500 1504 1508 1467 1465 1467 1467 1471 1471 1476 1481 1484 1485 1487 1491 1492 1492 1495 1498 1495 1495 1497 1496 1498 1501 1507 1510 1512 1511 1498 1505 1503 1498 1498 1499 1502 1505
1474 1479 1481 1487 1487 1493 1495 1497 1502 1507 1497 1466 1461 1463 1467 1468 1468 1473 1478 1481 1482 1485 1486 1487 1487 1488 1488 1489 1491 1495 1497 1499 1507 1509 1515 1512 1510 1501 1500 1491 1487 1489 1493 1493 1496
1469 1473 1477 1479 1481 1490 1493 1495 1503 1498 1470 1464 1461 1462 1461 1467 1467 1469 1474 1478 1482 1492 1491 1488 1487 1484 1485 1490 1491 1492 1497 1511 1514 1517 1516 1513 1512 1495 1485 1487 1486 1484 1485 1485 1488
1463 1468 1471 1472 1480 1483 1492 1495 1486 1472 1465 1460 1459 1459 1463 1463 1466 1467 1472 1476 1478 1481 1491 1491 1496 1485 1483 1484 1486 1494 1494 1510 1520 1522 1512 1514 1510 1489 1483 1483 1482 1480 1479 1480 1481
1457 1462 1464 1467 1475 1479 1485 1484 1460 1459 1457 1458 1457 1462 1465 1460 1463 1464 1470 1470 1471 1475 1482 1494 1493 1481 1482 1481 1481 1494 1500 1499 1515 1529 1520 1508 1499 1485 1481 1479 1478 1478 1475 1474 1474
1445 1454 1457 1465 1471 1474 1475 1463 1456 1448 1450 1452 1460 1457 1463 1458 1462 1462 1468 1463 1467 1469 1469 1480 1488 1483 1482 1481 1485 1487 1493 1503 1508 1515 1518 1508 1507 1492 1480 1478 1477 1477 1475 1472 1471
1438 1444 1447 1460 1468 1466 1456 1449 1450 1445 1445 1453 1453 1458 1456 1456 1456 1461 1460 1459 1459 1466 1469 1475 1480 1488 1484 1482 1482 1492 1493 1501 1499 1506 1506 1511 1500 1482 1479 1476 1475 1474 1475 1473 1472
1428 1433 1435 1453 1457 1446 1441 1442 1442 1442 1445 1447 1450 1456 1455 1452 1455 1456 1455 1452 1451 1457 1468 1470 1477 1491 1481 1478 1478 1479 1484 1491 1498 1505 1515 1513 1499 1475 1474 1474 1474 1472 1473 1472 1472
1417 1424 1426 1438 1440 1434 1436 1437 1438 1438 1441 1443 1447 1450 1450 1451 1453 1450 1450 1446 1449 1453 1460 1467 1479 1487 1482 1482 1481 1480 1482 1487 1495 1500 1505 1503 1490 1474 1473 1472 1470 1469 1469 1470 1470
1409 1414 1417 1426 1429 1427 1432 1431 1433 1435 1439 1439 1443 1449 1449 1450 1448 1447 1448 1446 1446 1449 1450 1454 1470 1471 1478 1475 1475 1482 1480 1482 1482 1495 1491 1491 1479 1471 1468 1469 1466 1466 1466 1467 1467
1394 1396 1395 1401 1421 1423 1423 1422 1426 1428 1435 1440 1440 1445 1447 1453 1449 1448 1445 1447 1448 1450 1452 1453 1464 1470 1465 1465 1468 1467 1470 1477 1477 1475 1480 1473 1481 1468 1464 1464 1464 1464 1464 1464 1466
1382 1384 1389 1384 1402 1420 1420 1413 1417 1424 1425 1432 1430 1438 1444 1448 1445 1445 1445 1447 1449 1452 1451 1453 1461 1464 1467 1468 1469 1469 1465 1468 1471 1475 1475 1473 1473 1462 1461 1462 1463 1464 1464 1464 1466
1372 1376 1382 1382 1391 1408 1406 1412 1415 1421 1422 1425 1429 1436 1441 1439 1441 1442 1442 1444 1444 1447 1453 1453 1460 1466 1467 1473 1469 1475 1466 1464 1464 1464 1460 1468 1457 1458 1459 1461 1462 1464 1466 1467 1468